カタログに戻る

TLV R/B

運用中VLEO
NORAD 58501·ROCKET BODY·🇰🇷 South Korea

打ち上げ Dec 4, 2023 から Jeju Island Sea Launch Area

Loading…

次のパス (今後24時間)

TLE

最新Source: Space-Track

元期: Sep 14, 2026, 09:41 UTC

1 58501U 23188B   26257.40357901  .00005727  00000-0  16992-3 0  9993
2 58501  46.9284 234.9555 0106263 124.1073 236.9978 15.30747066154488

AllMySatでTLV R/Bをリアルタイム追跡

Download on the App Store